Time,TemperatureF,DewpointF,PressureIn,WindDirection,WindDirectionDegrees,WindSpeedMPH,WindSpeedGustMPH,Humidity,HourlyPrecipIn,Conditions,Clouds,dailyrainin,SoftwareType,DateUTC
2013-02-21 00:09:00,25.4,16.0,29.76,WNW,283,1.0,2.0,68,0.00,,,0.00,weatherlink.com 1.10,2013-02-21 05:09:00,
2013-02-21 00:24:00,25.2,16.0,29.76,WNW,289,0.0,3.0,68,0.00,,,0.00,weatherlink.com 1.10,2013-02-21 05:24:00,
2013-02-21 00:39:00,25.0,17.0,29.77,East,95,2.0,4.0,70,0.00,,,0.00,weatherlink.com 1.10,2013-02-21 05:39:00,
2013-02-21 00:55:00,25.3,16.0,29.77,West,264,0.0,3.0,68,0.00,,,0.00,weatherlink.com 1.10,2013-02-21 05:55:00,
2013-02-21 01:09:00,25.3,16.0,29.77,WSW,245,1.0,4.0,69,0.00,,,0.00,weatherlink.com 1.10,2013-02-21 06:09:00,
2013-02-21 01:24:00,25.5,17.0,29.78,NNW,329,0.0,3.0,71,0.00,,,0.00,weatherlink.com 1.10,2013-02-21 06:24:00,
2013-02-21 01:39:00,25.6,17.0,29.78,West,278,0.0,2.0,69,0.00,,,0.00,weatherlink.com 1.10,2013-02-21 06:39:00,
2013-02-21 01:54:00,25.7,17.0,29.77,NW,311,1.0,3.0,69,0.00,,,0.00,weatherlink.com 1.10,2013-02-21 06:54:00,
2013-02-21 02:09:00,25.8,17.0,29.77,WSW,245,1.0,2.0,69,0.00,,,0.00,weatherlink.com 1.10,2013-02-21 07:09:00,
2013-02-21 02:24:00,25.8,18.0,29.77,West,264,0.0,3.0,71,0.00,,,0.00,weatherlink.com 1.10,2013-02-21 07:24:00,
2013-02-21 02:39:00,26.0,17.0,29.77,WSW,253,1.0,4.0,70,0.00,,,0.00,weatherlink.com 1.10,2013-02-21 07:39:00,
2013-02-21 02:54:00,26.1,16.0,29.77,WNW,288,0.0,4.0,67,0.00,,,0.00,weatherlink.com 1.10,2013-02-21 07:54:00,
2013-02-21 03:10:00,25.9,17.0,29.77,West,271,1.0,4.0,68,0.00,,,0.00,weatherlink.com 1.10,2013-02-21 08:10:00,
2013-02-21 03:24:00,25.7,16.0,29.77,ESE,116,2.0,2.0,67,0.00,,,0.00,weatherlink.com 1.10,2013-02-21 08:24:00,
2013-02-21 03:39:00,25.5,17.0,29.78,NW,304,0.0,2.0,69,0.00,,,0.00,weatherlink.com 1.10,2013-02-21 08:39:00,
2013-02-21 03:54:00,25.2,16.0,29.78,West,260,0.0,1.0,69,0.00,,,0.00,weatherlink.com 1.10,2013-02-21 08:54:00,
2013-02-21 04:10:00,24.8,17.0,29.78,WSW,246,1.0,2.0,71,0.00,,,0.00,weatherlink.com 1.10,2013-02-21 09:10:00,
2013-02-21 04:25:00,24.5,16.0,29.78,SW,224,0.0,2.0,70,0.00,,,0.00,weatherlink.com 1.10,2013-02-21 09:25:00,
2013-02-21 04:40:00,24.3,16.0,29.78,WSW,239,2.0,2.0,70,0.00,,,0.00,weatherlink.com 1.10,2013-02-21 09:40:00,
2013-02-21 04:55:00,24.4,16.0,29.79,WSW,248,1.0,3.0,69,0.00,,,0.00,weatherlink.com 1.10,2013-02-21 09:55:00,
2013-02-21 05:10:00,24.6,15.0,29.79,West,274,2.0,3.0,68,0.00,,,0.00,weatherlink.com 1.10,2013-02-21 10:10:00,
2013-02-21 05:25:00,24.6,16.0,29.79,West,269,1.0,3.0,69,0.00,,,0.00,weatherlink.com 1.10,2013-02-21 10:25:00,
2013-02-21 05:40:00,24.3,15.0,29.79,West,259,1.0,4.0,67,0.00,,,0.00,weatherlink.com 1.10,2013-02-21 10:40:00,
2013-02-21 05:55:00,24.0,15.0,29.80,WNW,283,0.0,2.0,69,0.00,,,0.00,weatherlink.com 1.10,2013-02-21 10:55:00,
2013-02-21 06:10:00,23.6,15.0,29.80,WNW,287,0.0,2.0,70,0.00,,,0.00,weatherlink.com 1.10,2013-02-21 11:10:00,
2013-02-21 06:25:00,23.4,14.0,29.80,WSW,253,1.0,6.0,68,0.00,,,0.00,weatherlink.com 1.10,2013-02-21 11:25:00,
2013-02-21 06:40:00,23.2,14.0,29.80,West,263,1.0,3.0,67,0.00,,,0.00,weatherlink.com 1.10,2013-02-21 11:40:00,
2013-02-21 06:55:00,23.2,13.0,29.81,West,276,2.0,3.0,66,0.00,,,0.00,weatherlink.com 1.10,2013-02-21 11:55:00,
2013-02-21 07:10:00,23.5,13.0,29.81,West,266,1.0,5.0,65,0.00,,,0.00,weatherlink.com 1.10,2013-02-21 12:10:00,
2013-02-21 07:25:00,23.3,13.0,29.81,West,278,1.0,5.0,65,0.00,,,0.00,weatherlink.com 1.10,2013-02-21 12:25:00,
2013-02-21 07:40:00,23.6,13.0,29.82,SSW,203,0.0,4.0,65,0.00,,,0.00,weatherlink.com 1.10,2013-02-21 12:40:00,
2013-02-21 07:55:00,24.0,14.0,29.81,WNW,283,2.0,4.0,66,0.00,,,0.00,weatherlink.com 1.10,2013-02-21 12:55:00,
2013-02-21 08:10:00,24.6,14.0,29.81,WSW,257,0.0,5.0,65,0.00,,,0.00,weatherlink.com 1.10,2013-02-21 13:10:00,
2013-02-21 08:25:00,24.9,13.0,29.81,West,269,1.0,4.0,62,0.00,,,0.00,weatherlink.com 1.10,2013-02-21 13:25:00,
2013-02-21 08:40:00,25.0,13.0,29.80,NNW,333,2.0,6.0,61,0.00,,,0.00,weatherlink.com 1.10,2013-02-21 13:40:00,
2013-02-21 08:55:00,25.8,13.0,29.80,West,259,3.0,5.0,58,0.00,,,0.00,weatherlink.com 1.10,2013-02-21 13:55:00,
2013-02-21 09:10:00,26.2,14.0,29.80,West,270,1.0,6.0,59,0.00,,,0.00,weatherlink.com 1.10,2013-02-21 14:10:00,
2013-02-21 09:25:00,26.6,13.0,29.80,NNW,328,3.0,5.0,57,0.00,,,0.00,weatherlink.com 1.10,2013-02-21 14:25:00,
2013-02-21 09:40:00,27.2,14.0,29.80,NNW,340,3.0,7.0,57,0.00,,,0.00,weatherlink.com 1.10,2013-02-21 14:40:00,
2013-02-21 09:55:00,28.0,13.0,29.80,WSW,249,3.0,7.0,53,0.00,,,0.00,weatherlink.com 1.10,2013-02-21 14:55:00,
2013-02-21 10:10:00,28.3,13.0,29.80,NW,304,1.0,6.0,54,0.00,,,0.00,weatherlink.com 1.10,2013-02-21 15:10:00,
2013-02-21 10:25:00,28.8,13.0,29.80,WNW,297,2.0,6.0,53,0.00,,,0.00,weatherlink.com 1.10,2013-02-21 15:25:00,
2013-02-21 10:40:00,29.3,14.0,29.80,WNW,297,4.0,8.0,54,0.00,,,0.00,weatherlink.com 1.10,2013-02-21 15:40:00,
2013-02-21 10:55:00,29.9,14.0,29.81,West,267,3.0,4.0,52,0.00,,,0.00,weatherlink.com 1.10,2013-02-21 15:55:00,
2013-02-21 11:10:00,30.6,14.0,29.80,ESE,107,2.0,6.0,51,0.00,,,0.00,weatherlink.com 1.10,2013-02-21 16:10:00,
2013-02-21 11:25:00,30.7,13.0,29.80,West,281,3.0,9.0,48,0.00,,,0.00,weatherlink.com 1.10,2013-02-21 16:25:00,
2013-02-21 11:40:00,31.2,14.0,29.80,NW,309,4.0,5.0,49,0.00,,,0.00,weatherlink.com 1.10,2013-02-21 16:40:00,
2013-02-21 11:55:00,31.2,13.0,29.80,West,263,1.0,8.0,48,0.00,,,0.00,weatherlink.com 1.10,2013-02-21 16:55:00,
2013-02-21 12:10:00,32.4,16.0,29.80,WNW,290,1.0,5.0,51,0.00,,,0.00,weatherlink.com 1.10,2013-02-21 17:10:00,
2013-02-21 12:26:00,31.2,14.0,29.80,West,280,2.0,6.0,49,0.00,,,0.00,weatherlink.com 1.10,2013-02-21 17:26:00,
2013-02-21 12:40:00,30.5,14.0,29.80,NW,315,0.0,7.0,51,0.00,,,0.00,weatherlink.com 1.10,2013-02-21 17:40:00,
2013-02-21 12:56:00,30.8,14.0,29.80,SW,232,3.0,9.0,50,0.00,,,0.00,weatherlink.com 1.10,2013-02-21 17:56:00,
2013-02-21 13:11:00,32.3,15.0,29.79,NW,326,0.0,5.0,50,0.00,,,0.00,weatherlink.com 1.10,2013-02-21 18:11:00,
2013-02-21 13:26:00,33.3,17.0,29.79,North,1,3.0,6.0,51,0.00,,,0.00,weatherlink.com 1.10,2013-02-21 18:26:00,
2013-02-21 13:41:00,33.3,15.0,29.79,NNW,345,2.0,8.0,48,0.00,,,0.00,weatherlink.com 1.10,2013-02-21 18:41:00,
2013-02-21 13:56:00,33.6,16.0,29.79,NNW,329,5.0,7.0,48,0.00,,,0.00,weatherlink.com 1.10,2013-02-21 18:56:00,
2013-02-21 14:11:00,32.4,15.0,29.80,NW,312,1.0,9.0,48,0.00,,,0.00,weatherlink.com 1.10,2013-02-21 19:11:00,
2013-02-21 14:26:00,32.2,16.0,29.80,NNW,334,3.0,7.0,52,0.00,,,0.00,weatherlink.com 1.10,2013-02-21 19:26:00,
2013-02-21 14:41:00,31.8,16.0,29.81,West,271,2.0,6.0,53,0.00,,,0.00,weatherlink.com 1.10,2013-02-21 19:41:00,
2013-02-21 14:56:00,31.9,15.0,29.82,WNW,290,2.0,7.0,50,0.00,,,0.00,weatherlink.com 1.10,2013-02-21 19:56:00,
2013-02-21 15:11:00,31.9,15.0,29.82,WNW,298,1.0,6.0,51,0.00,,,0.00,weatherlink.com 1.10,2013-02-21 20:11:00,
2013-02-21 15:26:00,32.0,16.0,29.83,West,270,2.0,7.0,53,0.00,,,0.00,weatherlink.com 1.10,2013-02-21 20:26:00,
2013-02-21 15:41:00,31.8,16.0,29.84,WNW,285,2.0,7.0,53,0.00,,,0.00,weatherlink.com 1.10,2013-02-21 20:41:00,
2013-02-21 15:56:00,31.3,15.0,29.84,SW,219,1.0,6.0,51,0.00,,,0.00,weatherlink.com 1.10,2013-02-21 20:56:00,
2013-02-21 16:11:00,31.1,16.0,29.86,NW,311,4.0,5.0,53,0.00,,,0.00,weatherlink.com 1.10,2013-02-21 21:11:00,
2013-02-21 16:26:00,30.6,15.0,29.87,WNW,295,3.0,3.0,53,0.00,,,0.00,weatherlink.com 1.10,2013-02-21 21:26:00,
2013-02-21 16:41:00,30.2,16.0,29.89,North,358,2.0,6.0,55,0.00,,,0.00,weatherlink.com 1.10,2013-02-21 21:41:00,
2013-02-21 16:56:00,29.6,15.0,29.90,North,354,3.0,10.0,54,0.00,,,0.00,weatherlink.com 1.10,2013-02-21 21:56:00,
2013-02-21 17:11:00,29.0,15.0,29.91,NNE,16,3.0,6.0,56,0.00,,,0.00,weatherlink.com 1.10,2013-02-21 22:11:00,
2013-02-21 17:26:00,28.5,14.0,29.93,WSW,249,1.0,7.0,56,0.00,,,0.00,weatherlink.com 1.10,2013-02-21 22:26:00,
2013-02-21 17:41:00,28.0,15.0,29.94,NW,316,3.0,5.0,59,0.00,,,0.00,weatherlink.com 1.10,2013-02-21 22:41:00,
2013-02-21 17:56:00,27.7,14.0,29.95,SE,127,0.0,5.0,57,0.00,,,0.00,weatherlink.com 1.10,2013-02-21 22:56:00,
2013-02-21 18:11:00,27.5,15.0,29.97,West,281,0.0,5.0,59,0.00,,,0.00,weatherlink.com 1.10,2013-02-21 23:11:00,
2013-02-21 18:26:00,27.4,15.0,29.98,NNW,334,3.0,7.0,60,0.00,,,0.00,weatherlink.com 1.10,2013-02-21 23:26:00,
2013-02-21 18:41:00,27.1,16.0,29.98,NNW,332,2.0,6.0,62,0.00,,,0.00,weatherlink.com 1.10,2013-02-21 23:41:00,
2013-02-21 18:56:00,26.8,15.0,29.99,North,349,0.0,5.0,62,0.00,,,0.00,weatherlink.com 1.10,2013-02-21 23:56:00,
2013-02-21 19:12:00,26.6,15.0,30.00,North,11,2.0,6.0,62,0.00,,,0.00,weatherlink.com 1.10,2013-02-22 00:12:00,
2013-02-21 19:26:00,26.3,16.0,30.02,SSE,164,2.0,4.0,64,0.00,,,0.00,weatherlink.com 1.10,2013-02-22 00:26:00,
2013-02-21 19:41:00,26.1,15.0,30.02,West,271,1.0,7.0,64,0.00,,,0.00,weatherlink.com 1.10,2013-02-22 00:41:00,
2013-02-21 19:57:00,25.9,15.0,30.03,West,260,1.0,6.0,64,0.00,,,0.00,weatherlink.com 1.10,2013-02-22 00:57:00,
2013-02-21 20:12:00,25.7,15.0,30.04,ESE,102,3.0,3.0,65,0.00,,,0.00,weatherlink.com 1.10,2013-02-22 01:12:00,
2013-02-21 20:26:00,25.7,16.0,30.05,WSW,245,1.0,4.0,66,0.00,,,0.00,weatherlink.com 1.10,2013-02-22 01:26:00,
2013-02-21 20:42:00,25.6,16.0,30.06,NNW,337,0.0,4.0,66,0.00,,,0.00,weatherlink.com 1.10,2013-02-22 01:42:00,
2013-02-21 20:57:00,25.3,16.0,30.07,NW,322,1.0,3.0,69,0.00,,,0.00,weatherlink.com 1.10,2013-02-22 01:57:00,
2013-02-21 21:12:00,25.3,16.0,30.08,West,269,0.0,6.0,67,0.00,,,0.00,weatherlink.com 1.10,2013-02-22 02:12:00,
2013-02-21 21:27:00,25.1,16.0,30.08,NW,305,0.0,4.0,68,0.00,,,0.00,weatherlink.com 1.10,2013-02-22 02:27:00,
2013-02-21 21:42:00,24.8,16.0,30.09,East,80,0.0,3.0,70,0.00,,,0.00,weatherlink.com 1.10,2013-02-22 02:42:00,
2013-02-21 21:57:00,24.5,16.0,30.09,North,4,1.0,3.0,71,0.00,,,0.00,weatherlink.com 1.10,2013-02-22 02:57:00,
2013-02-21 22:12:00,24.0,17.0,30.09,WSW,248,0.0,1.0,73,0.00,,,0.00,weatherlink.com 1.10,2013-02-22 03:12:00,
2013-02-21 22:27:00,23.9,16.0,30.10,West,273,1.0,2.0,73,0.00,,,0.00,weatherlink.com 1.10,2013-02-22 03:27:00,
2013-02-21 22:57:00,24.4,17.0,30.12,WSW,254,1.0,4.0,72,0.00,,,0.00,weatherlink.com 1.10,2013-02-22 03:57:00,
2013-02-21 23:12:00,24.3,17.0,30.13,North,360,0.0,2.0,73,0.00,,,0.00,weatherlink.com 1.10,2013-02-22 04:12:00,
2013-02-21 23:27:00,24.0,17.0,30.14,NNW,335,1.0,2.0,74,0.00,,,0.00,weatherlink.com 1.10,2013-02-22 04:27:00,
2013-02-21 23:42:00,24.0,17.0,30.16,West,270,0.0,1.0,74,0.00,,,0.00,weatherlink.com 1.10,2013-02-22 04:42:00,
2013-02-21 23:57:00,24.1,17.0,30.17,WNW,287,0.0,2.0,74,0.00,,,0.00,weatherlink.com 1.10,2013-02-22 04:57:00,